Vorticity
7 10 7 10 11 2 14 3 -6 2 -5 9 5 3 6 4 4 2 2 6 4 7 9 6 5 6 15 10 13 7 6 7 9 5 7 6 6 7 14 4 2 4 5 5
5 4 6 3 13 7 5 2 4 6 17 10 7 15 6 3 3 2 1 1 4 4 3 8 6 7 7 13 8 12 10 7 8 9 5 6 7 8 11 11 3 2 5 5
8 5 4 5 11 14 3 4 -4 6 1 -5 6 9 7 6 6 -1 -0 -3 1 2 2 2 4 5 5 5 12 11 10 10 10 5 8 8 5 5 7 13 6 2 4 5
1 4 3 4 4 3 9 17 4 -4 5 8 7 5 10 16 -2 1 5 -2 1 0 3 2 3 5 5 3 3 9 10 7 0 7 10 9 8 7 6 8 17 5 3 5
6 4 4 6 9 9 -0 5 9 7 7 14 4 10 -1 5 8 5 5 -4 22 3 12 7 13 8 12 11 6 5 6 6 9 9 11 6 7 7 11 9 11 9 4 4
8 8 9 9 9 5 0 1 5 4 8 13 11 10 6 1 6 7 4 3 3 4 26 2 -11 12 1 -1 10 11 4 5 6 4 6 5 9 8 9 13 14 13 6 6
2 6 6 2 2 9 8 10 6 7 14 -2 9 -6 2 9 6 4 11 10 2 -2 -7 -25 -9 21 -28 15 20 -2 13 11 2 6 7 3 2 4 8 10 13 18 7 5
9 8 7 11 8 14 12 11 13 13 23 -7 12 5 8 18 16 14 -2 -6 11 -5 3 16 3 1 11 14 8 19 1 7 10 11 6 7 8 4 2 4 11 13 10 7
11 9 -1 12 9 10 10 10 14 19 32 1 14 22 6 16 6 9 10 7 2 -3 4 9 16 13 13 6 4 6 16 22 12 13 9 6 7 10 10 6 3 7 11 9
9 7 12 16 17 5 11 11 8 12 -4 11 6 12 2 -1 0 1 2 1 2 1 5 5 -3 -2 10 9 12 9 11 -5 -1 13 8 6 5 5 2 5 10 5 5 9
8 4 3 5 3 8 10 3 7 12 11 -5 12 6 10 3 6 6 8 14 10 6 -4 -0 -2 -1 -1 2 9 20 13 7 6 4 7 8 14 6 8 11 5 7 6 6
5 1 -1 1 5 8 3 5 5 5 8 7 6 -7 7 6 4 5 5 7 7 8 9 6 5 8 5 1 -2 -0 1 18 10 8 3 6 -1 2 9 13 6 7 12 6
6 5 8 5 2 5 6 8 8 9 13 5 26 5 3 2 3 4 -0 -1 -0 -3 -2 -1 -3 -2 1 3 2 2 2 -3 -2 12 9 8 2 -3 4 8 10 5 9 14
5 11 10 9 7 9 9 10 10 15 25 8 -10 10 15 3 1 3 3 6 9 2 -2 -2 -3 -4 -4 5 8 7 7 21 15 12 14 8 6 16 3 1 6 7 7 14
8 9 8 11 10 8 8 5 6 5 3 11 26 1 6 -0 2 7 5 3 5 7 14 9 -7 12 14 3 1 20 -11 -11 1 8 9 11 8 5 18 10 2 6 7 1
13 11 11 11 8 6 10 10 4 4 6 3 3 0 9 13 12 -4 -7 -4 1 -1 0 -2 -6 1 5 6 8 9 -1 3 7 5 6 4 6 9 8 15 15 2 4 15
9 9 9 9 7 7 9 5 3 7 8 5 5 9 9 8 7 8 8 9 11 9 7 8 6 5 3 3 1 5 9 10 8 5 5 6 4 7 14 9 9 17 6 2
10 12 14 15 18 17 17 15 13 11 9 7 10 11 13 15 17 19 19 22 20 18 16 12 9 7 6 5 3 2 -1 -2 1 4 8 8 9 7 6 12 11 7 21 6
8 9 13 16 17 16 15 16 15 18 17 18 15 12 11 9 5 4 9 9 8 12 14 17 18 18 16 14 12 10 11 14 18 21 9 6 7 8 7 7 11 13 5 16
12 19 5 17 11 11 14 15 16 17 12 15 12 12 13 11 7 7 9 13 16 14 12 11 12 16 19 17 18 16 15 12 11 10 16 20 5 10 7 10 8 11 15 5
8 6 7 15 5 13 12 6 -0 1 7 7 8 6 7 4 5 9 10 11 18 19 14 15 17 17 15 22 24 25 22 16 16 9 20 12 17 7 10 6 10 9 10 11
1 8 11 7 12 19 11 0 6 8 11 14 16 14 11 10 10 15 8 4 9 17 17 19 15 12 7 7 11 12 14 16 30 26 19 21 12 16 9 10 5 11 9 9
13 13 2 23 16 7 10 4 3 16 -2 31 20 13 13 30 14 -7 15 9 15 20 12 12 17 15 11 10 20 24 31 19 29 14 29 26 32 12 16 12 8 7 12 10
15 22 10 7 7 7 10 15 8 23 -16 2 23 21 7 5 10 13 14 17 14 15 7 42 42 34 22 26 24 18 28 36 15 24 15 18 31 27 15 17 11 7 10 13
10 6 7 10 11 10 9 9 7 5 1 21 3 15 0 19 16 16 15 12 12 11 31 6 39 25 28 30 18 9 23 39 33 35 43 18 18 31 25 18 14 8 7 13
6 12 15 11 10 10 10 8 8 10 20 25 10 9 24 14 18 10 11 21 10 19 35 5 22 14 24 24 31 20 27 20 20 33 40 42 11 28 26 19 16 10 7 8
Height
5917 5918 5917 5917 5919 5920 5920 5923 5926 5929 5928 5929 5930 5930 5932 5932 5933 5932 5933 5934 5933 5933 5933 5933 5935 5936 5936 5937 5938 5939 5942 5942 5943 5945 5949 5951 5950 5951 5953 5954 5956 5957 5958 5958
5915 5913 5916 5917 5917 5919 5920 5918 5923 5924 5928 5928 5928 5929 5929 5930 5933 5932 5934 5933 5933 5934 5934 5934 5934 5935 5938 5938 5939 5939 5940 5942 5944 5944 5946 5949 5951 5951 5951 5953 5955 5957 5958 5958
5911 5912 5913 5915 5918 5918 5918 5918 5917 5922 5925 5924 5924 5927 5927 5928 5929 5930 5932 5932 5931 5932 5933 5934 5933 5933 5935 5937 5937 5938 5939 5940 5942 5944 5944 5945 5948 5950 5950 5950 5952 5955 5956 5957
5907 5908 5911 5913 5915 5916 5917 5920 5919 5917 5922 5922 5924 5925 5924 5925 5924 5926 5928 5929 5930 5930 5930 5932 5933 5933 5932 5934 5936 5937 5938 5940 5941 5942 5944 5944 5945 5946 5948 5948 5950 5952 5954 5956
5905 5906 5908 5912 5913 5914 5915 5916 5917 5917 5915 5920 5919 5921 5921 5921 5921 5919 5923 5924 5925 5929 5927 5929 5931 5936 5934 5936 5937 5936 5935 5936 5936 5938 5941 5942 5943 5943 5945 5945 5946 5949 5951 5953
5899 5901 5904 5908 5907 5908 5909 5911 5913 5914 5916 5917 5915 5915 5915 5917 5917 5915 5917 5919 5919 5925 5923 5921 5925 5932 5935 5936 5938 5938 5936 5934 5933 5935 5936 5938 5940 5941 5941 5943 5944 5945 5947 5949
5892 5896 5898 5900 5903 5904 5905 5908 5909 5911 5912 5912 5910 5910 5913 5912 5912 5912 5912 5913 5917 5920 5917 5920 5923 5924 5931 5936 5934 5934 5935 5936 5933 5931 5933 5934 5935 5936 5937 5939 5941 5943 5945 5946
5888 5892 5894 5894 5896 5899 5900 5903 5904 5906 5909 5907 5905 5906 5907 5909 5910 5912 5911 5912 5911 5913 5921 5917 5924 5924 5927 5934 5932 5931 5931 5929 5931 5930 5929 5931 5930 5932 5932 5933 5936 5938 5942 5944
5883 5886 5889 5889 5891 5894 5896 5897 5900 5902 5904 5901 5902 5902 5901 5901 5902 5904 5906 5905 5907 5909 5909 5916 5919 5919 5920 5926 5927 5926 5923 5924 5925 5927 5925 5927 5929 5929 5928 5928 5928 5932 5934 5937
5879 5881 5882 5886 5887 5889 5892 5894 5897 5899 5900 5895 5897 5897 5898 5898 5898 5899 5901 5902 5902 5902 5903 5905 5910 5914 5914 5917 5919 5921 5920 5919 5918 5919 5919 5921 5921 5922 5922 5922 5924 5924 5926 5928
5875 5877 5879 5883 5884 5886 5889 5890 5893 5895 5895 5890 5889 5892 5893 5893 5894 5895 5895 5894 5893 5891 5892 5894 5896 5898 5900 5906 5910 5911 5911 5910 5910 5911 5912 5912 5913 5915 5916 5917 5918 5919 5920 5921
5870 5872 5873 5875 5878 5879 5882 5884 5886 5888 5890 5885 5883 5885 5886 5888 5889 5891 5892 5891 5891 5891 5892 5892 5891 5891 5891 5891 5891 5893 5896 5901 5901 5902 5904 5904 5904 5904 5907 5908 5909 5910 5913 5914
5865 5868 5870 5870 5872 5872 5874 5877 5881 5883 5884 5880 5877 5879 5878 5880 5883 5885 5886 5885 5885 5884 5884 5885 5886 5886 5887 5888 5887 5886 5888 5889 5890 5891 5892 5894 5895 5897 5898 5898 5899 5900 5903 5904
5863 5863 5865 5864 5864 5867 5869 5870 5872 5876 5879 5874 5874 5872 5871 5873 5875 5877 5877 5876 5874 5873 5872 5872 5874 5876 5878 5880 5879 5879 5879 5880 5879 5878 5880 5882 5883 5884 5886 5888 5890 5891 5892 5894
5857 5858 5859 5859 5859 5859 5861 5861 5862 5866 5869 5867 5871 5865 5864 5864 5864 5865 5867 5866 5865 5863 5862 5859 5859 5861 5863 5865 5866 5866 5867 5868 5868 5867 5867 5868 5871 5871 5873 5875 5876 5878 5880 5882
5849 5850 5851 5853 5854 5854 5854 5855 5856 5855 5853 5855 5857 5859 5860 5859 5857 5858 5858 5858 5857 5854 5850 5846 5843 5841 5840 5842 5846 5850 5851 5852 5853 5851 5851 5852 5854 5859 5859 5862 5863 5864 5867 5868
5841 5842 5842 5844 5846 5846 5847 5845 5844 5846 5846 5844 5846 5847 5849 5849 5846 5847 5846 5845 5843 5840 5836 5832 5828 5826 5823 5820 5820 5822 5827 5834 5837 5837 5835 5835 5836 5841 5846 5847 5849 5852 5854 5855
5833 5834 5835 5836 5836 5838 5838 5835 5835 5835 5834 5833 5834 5836 5836 5833 5829 5828 5827 5825 5822 5819 5819 5818 5813 5810 5808 5804 5800 5800 5804 5805 5813 5817 5817 5816 5818 5822 5827 5832 5834 5837 5840 5841
5824 5826 5826 5827 5828 5828 5827 5828 5828 5826 5825 5824 5823 5821 5819 5817 5816 5815 5812 5806 5801 5800 5799 5797 5795 5792 5788 5785 5783 5779 5779 5782 5786 5793 5796 5797 5800 5804 5808 5814 5818 5822 5823 5826
5817 5819 5820 5819 5819 5819 5819 5819 5819 5817 5815 5817 5813 5810 5808 5804 5800 5797 5796 5793 5790 5784 5777 5775 5772 5771 5768 5765 5762 5760 5757 5756 5760 5766 5770 5777 5781 5785 5789 5794 5800 5805 5808 5811
5811 5810 5811 5810 5809 5809 5810 5811 5810 5809 5811 5803 5800 5796 5791 5787 5783 5780 5776 5773 5771 5767 5763 5758 5752 5748 5744 5742 5739 5736 5734 5734 5735 5738 5745 5752 5757 5764 5768 5775 5781 5787 5791 5795
5803 5803 5802 5802 5802 5802 5802 5802 5800 5797 5792 5789 5785 5781 5777 5773 5768 5765 5761 5756 5751 5746 5742 5736 5732 5727 5723 5717 5714 5712 5710 5709 5709 5710 5718 5726 5734 5740 5748 5755 5764 5768 5774 5779
5798 5796 5795 5795 5794 5795 5794 5791 5787 5782 5779 5775 5770 5767 5764 5762 5758 5754 5747 5741 5735 5728 5722 5715 5709 5703 5697 5692 5688 5687 5685 5684 5684 5686 5692 5701 5709 5716 5728 5735 5745 5751 5757 5764
5791 5790 5790 5788 5788 5786 5784 5781 5778 5775 5771 5766 5761 5756 5753 5749 5745 5740 5735 5728 5722 5715 5707 5697 5689 5681 5676 5671 5667 5664 5661 5658 5661 5664 5670 5677 5685 5695 5706 5716 5726 5735 5742 5748
5787 5786 5785 5783 5781 5778 5775 5773 5770 5764 5759 5752 5748 5744 5741 5737 5734 5730 5724 5717 5712 5704 5693 5686 5676 5668 5662 5654 5650 5645 5642 5640 5641 5642 5645 5655 5665 5675 5687 5699 5710 5719 5727 5733
5784 5782 5779 5775 5773 5769 5766 5762 5758 5754 5749 5742 5738 5735 5732 5729 5725 5720 5715 5709 5703 5693 5683 5676 5667 5659 5652 5644 5639 5635 5630 5629 5627 5624 5629 5639 5650 5660 5672 5683 5695 5703 5713 5720